Location: Eldred Sherwood Park Lake Dam
(42.9416°N, 93.5655°W)
Time: 09:11:19
(UTC+00:00)

BlueWalker 3 - Pass Details

Date: 10 October 2024
Orbit: 470 x 482 km, 53.2° (Epoch: 03 November)

Event Time Altitude Azimuth Distance (km) Brightness Sun altitude
Exits shadow 10:36:29 28° 341° (NNW) 924 3.1 -20.1°
Drops below altitude 10° 10:39:37 10° 39° (NE) 1,636 5.2 -19.6°
Sets 10:42:00 0° 51° (NE) 2,516 6.5 -19.2°
